Flag for Bulgaria Weather past 2 weeks in Plovdiv, Bulgaria

Now
45 °F

Sunny.


Feels Like: 45 °F
Forecast: 36 / 51 °F
Wind: No wind

Location: Plovdiv Airport

Current Time: Oct 24, 2014 at 11:06:56 AM

Latest Report: Oct 24, 2014 at 10:00 AM


Visibility: 10 mi

Pressure: 29.95 "Hg

Humidity: 93%

Dew point: 43 °F

Location of PlovdivLocation

Historic Weather in Plovdiv — Graph

°F

Plovdiv temperature yesterday

Maximum temperature yesterday: 68 °F (at 12:00 AM)
Minimum temperature yesterday: 46 °F (at 2:00 PM)
Average temperature yesterday: 52 °F

Past Weeks' High & Low Weather Summary

 TemperatureHumidityPressure
High79 °F (Oct 17, 4:00 PM)100% (Oct 9, 10:00 PM)30.45 "Hg (Oct 9, 10:00 PM)
Low39 °F (Oct 20, 6:00 AM)41% (Oct 21, 4:00 PM)29.47 "Hg (Oct 23, 6:04 AM)
Average59 °F79%30.01 "Hg
* Reported Oct 9 10:00 AM — Oct 24 10:00 AM, Plovdiv, Weather by CustomWeather, © 2014

Note: Actual official high and low records may vary slightly from our data, if they occured in-between our weather recording intervals... More about our weather records

Advertising

Plovdiv weather history for previous 24 hours

 ConditionsComfort  
Time TempWeatherWind HumidityBarometerVisibility
10:00 AM
Oct 24
45 °FSunny.No wind93%29.95 "Hg10 mi
9:00 AM43 °FSunny.1 mph100%29.92 "Hg10 mi
8:00 AM39 °FClear.1 mph100%29.89 "Hg10 mi
7:00 AM43 °FClear.No wind93%29.86 "Hg10 mi
6:00 AM43 °FClear.No wind93%29.86 "Hg10 mi
5:00 AM43 °FPassing clouds.No wind93%29.83 "HgN/A
4:00 AM43 °FPassing clouds.1 mph93%29.83 "HgN/A
3:00 AM46 °FPassing clouds.8 mph82%29.80 "HgN/A
2:00 AM48 °FPassing clouds.10 mph76%29.80 "HgN/A
1:00 AM48 °FPartly cloudy.10 mph76%29.77 "HgN/A
12:00 AM46 °FPartly cloudy.10 mph82%29.74 "HgN/A
11:00 PM
Oct 23
48 °FPartly cloudy.10 mph82%29.71 "HgN/A
10:00 PM48 °FPartly cloudy.10 mph87%29.68 "HgN/A
9:00 PM48 °FPartly cloudy.6 mph87%29.65 "HgN/A
8:00 PM48 °FPassing clouds.8 mph87%29.62 "HgN/A
7:00 PM48 °FScattered clouds.6 mph100%29.59 "HgN/A
6:00 PM50 °FLight rain. Broken clouds.3 mph94%29.56 "HgN/A
5:00 PM50 °FRain. Overcast.8 mph94%29.56 "HgN/A
4:00 PM48 °FRain. More clouds than sun.20 mph94%29.56 "Hg4 mi
3:00 PM48 °FRain. Overcast.22 mph94%29.53 "Hg5 mi
2:00 PM46 °FLight rain. More clouds than sun.26 mph100%29.50 "Hg1 mi
1:00 PM48 °FRain. More clouds than sun.26 mph100%29.47 "Hg1 mi
12:00 PM54 °FLight rain. Fog.15 mph100%29.47 "Hg3 mi
11:00 AM55 °FLight rain. Broken clouds.1 mph100%29.47 "Hg2 mi
Weather by CustomWeather, © 2014

See weather overviewHow to use our weather pages